TimeEST,TemperatureF,Dew PointF,Humidity,Sea Level PressureIn,VisibilityMPH,Wind Direction,Wind SpeedMPH,Gust SpeedMPH,PrecipitationIn,Events,Conditions,WindDirDegrees,DateUTC
12:53 AM,73.0,68.0,84,30.26,10.0,East,8.1,-,N/A,,Overcast,100,2013-01-10 05:53:00
1:53 AM,73.0,68.0,84,30.26,10.0,East,9.2,-,N/A,,Overcast,100,2013-01-10 06:53:00
2:53 AM,72.0,68.0,87,30.26,10.0,East,8.1,-,N/A,,Mostly Cloudy,80,2013-01-10 07:53:00
3:53 AM,70.0,68.0,93,30.25,10.0,East,5.8,-,N/A,,Scattered Clouds,90,2013-01-10 08:53:00
4:53 AM,70.0,66.9,90,30.25,10.0,East,8.1,-,N/A,,Clear,100,2013-01-10 09:53:00
5:53 AM,69.1,66.9,93,30.26,8.0,East,4.6,-,N/A,,Clear,80,2013-01-10 10:53:00
6:53 AM,69.1,66.9,93,30.26,8.0,East,8.1,-,N/A,,Clear,100,2013-01-10 11:53:00
7:53 AM,69.1,66.9,93,30.27,7.0,East,5.8,-,N/A,,Clear,100,2013-01-10 12:53:00
8:53 AM,73.0,66.9,81,30.28,10.0,ESE,8.1,-,N/A,,Clear,110,2013-01-10 13:53:00
10:53 AM,80.1,63.0,56,30.24,10.0,SE,17.3,25.3,N/A,,Clear,130,2013-01-10 15:53:00
11:53 AM,82.0,62.1,51,30.20,10.0,ESE,15.0,24.2,N/A,,Partly Cloudy,110,2013-01-10 16:53:00
12:53 PM,82.9,57.9,42,30.18,10.0,ESE,15.0,23.0,N/A,,Partly Cloudy,110,2013-01-10 17:53:00
1:53 PM,82.0,59.0,45,30.19,10.0,SE,12.7,-,N/A,,Mostly Cloudy,130,2013-01-10 18:53:00
2:53 PM,84.0,59.0,43,30.19,10.0,SE,11.5,17.3,N/A,,Partly Cloudy,130,2013-01-10 19:53:00
3:53 PM,81.0,60.1,49,30.20,10.0,SE,6.9,-,N/A,,Scattered Clouds,140,2013-01-10 20:53:00
4:53 PM,80.1,60.1,50,30.22,10.0,ESE,8.1,-,N/A,,Mostly Cloudy,110,2013-01-10 21:53:00
5:53 PM,77.0,60.1,56,30.22,10.0,ESE,8.1,-,N/A,,Clear,110,2013-01-10 22:53:00
6:53 PM,75.0,60.1,60,30.23,10.0,ESE,9.2,-,N/A,,Clear,110,2013-01-10 23:53:00
7:53 PM,73.9,61.0,64,30.24,10.0,ESE,10.4,-,N/A,,Clear,120,2013-01-11 00:53:00
8:53 PM,72.0,61.0,68,30.25,10.0,East,5.8,-,N/A,,Clear,90,2013-01-11 01:53:00
9:53 PM,69.1,61.0,75,30.27,10.0,East,5.8,-,N/A,,Clear,90,2013-01-11 02:53:00
10:53 PM,68.0,62.1,81,30.27,10.0,East,6.9,-,N/A,,Clear,90,2013-01-11 03:53:00
11:53 PM,66.9,63.0,87,30.27,10.0,East,6.9,-,N/A,,Clear,100,2013-01-11 04:53:00